Location: Newark
(12.5331°N, 56.4669°W)
Time: 00:44:52
(UTC+00:00)

LightSail 2 - Pass Details

Date: 31 January 2020
Orbit: 700 x 722 km, 24.0° (Epoch: 20 February)

Event Time Altitude Azimuth Distance (km) Brightness Sun altitude
Rises 00:22:46 0° 272° (W) 3,075 9.3 -37.7°
Reaches altitude 10° 00:25:36 10° 258° (WSW) 2,161 8.3 -38.4°
Enters shadow 00:27:22 17° 241° (WSW) 1,718 7.7 -38.8°
